[[{"header":{"parameterUnit":"m.s-1","parameterCategory":1,"la1":30.2991,"la2":30.254,"lo1":-89.0895,"lo2":-89.0444,"dy":0.0017,"dx":0.0017,"nx":28,"ny":28,"refTime":"2024-06-05T09:00:00:Z","depth":0,"parameterNumber":2,"parameterNumberName":"U-component_of_WINDS"},"data":[0,0,0,0,0,0,0,0,0,0,0,0,0,0,0,0,0,0,0,0,0,0,0,0,0,0,0,0,0,0,0,0,0,0,0,0,0,0,0,0,0,0,0,0,0,0,0,0,0,0,0,0,0,0,0,0,0,0,3.0266,3.0267,0,3.0354,3.0355,3.0356,3.0349,3.0347,3.0346,3.0345,3.044,3.0443,3.0447,0,0,0,0,0,0,0,0,0,0,0,0,0,3.0099,3.0102,3.0266,3.0267,3.0268,3.0354,3.0355,3.0356,3.0349,3.0347,3.0346,3.0344,3.0439,3.0443,3.0448,0,0,0,0,0,0,0,0,0,0,0,0,0,3.0178,3.0103,3.0266,3.0275,3.0276,3.0353,3.0355,3.0356,3.0349,3.0347,3.0345,3.0343,3.0437,3.0443,3.0448,3.0523,0,0,3.0466,3.0468,0,0,0,0,0,0,0,0,3.0173,3.0184,3.0272,3.0274,3.0276,3.0338,3.0331,3.0413,3.035,3.0322,3.0345,3.0342,3.0408,3.0416,3.0437,3.0528,3.0532,3.0466,3.0469,3.0472,3.0473,0,0,0,0,0,0,0,3.0168,3.018,3.0301,3.0274,3.0276,3.0277,3.0286,3.0346,3.0375,3.0324,3.0324,3.0334,3.0409,3.0431,3.0439,3.0533,3.0466,3.0471,3.0474,3.0477,3.0696,3.0698,0,0,0,0,0,0,3.016,3.0176,3.0298,3.0304,3.0219,3.0281,3.0291,3.032,3.0375,3.0381,3.0336,3.0333,3.0423,3.0433,3.0442,3.0537,3.0472,3.0477,3.048,3.0693,3.0696,3.0699,0,0,0,0,0,0,3.0156,3.0171,3.0295,3.024,3.0255,3.0286,3.0319,3.0323,3.0346,3.0383,3.0389,3.0353,3.0422,3.0434,3.0504,3.054,3.048,3.0485,3.069,3.0694,3.0697,3.0725,0,0,0,0,0,0,3.0151,3.0169,3.0196,3.024,3.0258,3.0352,3.0321,3.0326,3.0355,3.0353,3.0401,3.0407,3.0421,3.0496,3.051,3.0547,3.0489,3.0687,3.0692,3.0696,3.0721,3.0729,3.0736,0,0,0,0,0,3.0145,3.0201,3.0198,3.0212,3.0292,3.0354,3.0365,3.0378,3.0358,3.0387,3.0412,3.0406,3.0534,3.0503,3.0519,3.0558,3.0685,3.0691,3.0696,3.0718,3.0727,3.0736,0,0,0,0,0,0,3.0161,3.0206,3.0203,3.0274,3.0311,3.0353,3.0389,3.0388,3.0431,3.0428,3.0444,3.0455,3.0526,3.0549,3.0513,3.0636,3.0607,3.0616,3.0618,3.0628,3.0635,3.0629,3.0494,0,0,0,0,0,3.0172,3.0217,3.0255,3.0314,3.0332,3.0358,3.0385,3.0393,3.0432,3.0447,3.0477,3.0516,3.0566,3.0598,3.0645,3.0724,3.0737,3.076,3.0767,3.0773,3.0781,3.0828,3.084,3.0716,3.0716,3.0716,0,0,3.0197,3.0227,3.0254,3.0318,3.0347,3.0396,3.0371,3.0422,3.046,3.0456,3.0523,3.0547,3.0592,3.0668,3.0703,3.0689,3.0818,3.078,3.0784,3.0789,3.0835,3.0847,3.0857,3.072,3.0719,3.0719,0,0,3.0266,3.0293,3.0346,3.0376,3.042,3.0437,3.0451,3.0494,3.0509,3.0577,3.0577,3.0622,3.0706,3.074,3.0768,3.0854,3.0852,3.0869,3.0909,3.0955,3.0965,3.0973,3.1007,3.1018,3.0877,3.0877,3.0877,0,3.0292,3.0363,3.0374,3.0427,3.0457,3.0455,3.0512,3.054,3.0598,3.062,3.0604,3.0712,3.0742,3.0827,3.0848,3.087,3.0888,3.0864,3.0962,3.0971,3.0979,3.1011,3.1024,3.0879,3.0879,3.0879,3.0878,0,3.0393,3.0443,3.0481,3.0537,3.0571,3.0625,3.0648,3.0682,3.0687,3.0707,3.0779,3.0815,3.0871,3.0892,3.0898,3.0979,3.097,3.0958,3.0929,3.0993,3.1024,3.1036,3.0882,3.0881,3.088,3.088,0,0,3.0474,3.0537,3.0551,3.0578,3.0628,3.0668,3.0724,3.0778,3.0808,3.0849,3.0899,3.0971,3.0961,3.0993,3.1003,3.1043,3.1113,3.1026,3.1028,3.1043,3.1209,3.1219,3.1233,3.1112,3.1114,3.1116,3.1206,0,3.055,3.0647,3.0661,3.0749,3.0797,3.0798,3.0847,3.0885,3.0906,3.0952,3.0976,3.1028,3.1009,3.1029,3.1068,3.1096,3.1147,3.1089,3.1161,3.1163,3.115,3.1249,3.1259,3.1342,3.1218,3.122,3.1221,0,3.0652,3.0696,3.0787,3.0834,3.0855,3.0899,3.0952,3.0994,3.1039,3.1052,3.1089,3.1095,3.1156,3.1125,3.1212,3.1172,3.1203,3.1221,3.1225,3.1233,3.1197,3.1261,3.1368,3.1382,3.124,3.1239,3.1237,0,3.0705,3.0786,3.0853,3.0875,3.0931,3.0962,3.0987,3.1029,3.1062,3.1109,3.1132,3.1185,3.1215,3.1258,3.128,3.1254,3.1367,3.1336,3.1381,3.1381,3.1405,3.1404,3.1521,3.1422,3.1422,3.1422,3.1422,0,3.0789,3.0846,3.0878,3.0919,3.0984,3.1001,3.1065,3.109,3.1128,3.1176,3.118,3.1226,3.125,3.13,3.1318,3.1389,3.1402,3.1416,3.1421,3.1417,3.1415,3.1437,3.1433,3.1425,3.1425,3.1424,3.1423,0,3.0859,3.0882,3.0955,3.1002,3.1016,3.1062,3.1103,3.1145,3.1166,3.1227,3.1243,3.1277,3.1337,3.1362,3.1435,3.1447,3.153,3.1529,3.1514,3.1516,3.1561,3.1557,3.1697,3.1718,3.1604,3.1605,3.1606,0,3.0912,3.0956,3.1008,3.104,3.1066,3.1117,3.1151,3.1171,3.1207,3.1263,3.1298,3.1358,3.1406,3.1502,3.1535,3.1592,3.1594,3.1639,3.1602,3.1598,3.1597,3.1595,3.1601,3.1646,3.1647,3.1648,3.1649,0,3.1005,3.1015,3.1063,3.1116,3.1156,3.1199,3.1241,3.1268,3.1295,3.1335,3.1395,3.1433,3.1509,3.1569,3.1628,3.1657,3.1659,3.166,3.1674,3.1671,3.1662,3.167,3.1534,3.1657,3.1656,3.1655,3.1655,3.1655,3.107,3.111,3.1154,3.1208,3.1242,3.1282,3.1324,3.1352,3.1402,3.1464,3.1473,3.1539,3.1586,3.1666,3.1697,3.175,3.1739,3.1759,3.1764,3.1769,3.1773,3.1652,3.1761,3.1761,3.1761,3.1761,3.1761,0,3.1165,3.1193,3.1243,3.1302,3.1346,3.1343,3.139,3.1428,3.1485,3.1528,3.1576,3.1647,3.1706,3.1745,3.1805,3.1841,3.1844,3.1856,3.1855,3.1862,3.1778,3.1761,3.1853,3.1853,3.1853,3.1853,3.1853,3.1853,3.1219,3.1288,3.1304,3.1391,3.142,3.1484,3.1512,3.155,3.1585,3.1664,3.1712,3.1737,3.178,3.1843,3.1899,3.1909,3.1932,3.1946,3.1955,3.1877,3.1867,3.1858,3.1842,3.195,3.195,3.2035,3.2036,3.2036]},{"header":{"parameterUnit":"m.s-1","parameterCategory":1,"la1":30.2991,"la2":30.254,"lo1":-89.0895,"lo2":-89.0444,"dy":0.0017,"dx":0.0017,"nx":28,"ny":28,"refTime":"2024-06-05T09:00:00:Z","depth":0,"parameterNumber":3,"parameterNumberName":"V-component_of_WINDS"},"data":[0,0,0,0,0,0,0,0,0,0,0,0,0,0,0,0,0,0,0,0,0,0,0,0,0,0,0,0,0,0,0,0,0,0,0,0,0,0,0,0,0,0,0,0,0,0,0,0,0,0,0,0,0,0,0,0,0,0,2.1788,2.179,0,2.2011,2.2014,2.2016,2.2047,2.2045,2.2043,2.2041,2.2269,2.2277,2.2285,0,0,0,0,0,0,0,0,0,0,0,0,0,2.1383,2.139,2.1788,2.179,2.1793,2.2011,2.2014,2.2017,2.2048,2.2045,2.2042,2.204,2.2266,2.2276,2.2286,0,0,0,0,0,0,0,0,0,0,0,0,0,2.1578,2.1392,2.1787,2.1835,2.1841,2.201,2.2014,2.2018,2.2048,2.2045,2.2042,2.2039,2.2263,2.2275,2.2287,2.2424,0,0,2.2324,2.2329,0,0,0,0,0,0,0,0,2.1566,2.1592,2.1825,2.1832,2.1839,2.1998,2.1955,2.2154,2.2049,2.197,2.2041,2.2037,2.2181,2.22,2.2249,2.2435,2.2444,2.2325,2.2332,2.2337,2.2341,0,0,0,0,0,0,0,2.1553,2.1583,2.1876,2.1828,2.1837,2.1843,2.1868,2.1993,2.209,2.1976,2.1979,2.2005,2.2185,2.2237,2.2254,2.2448,2.2324,2.2335,2.2343,2.2347,2.275,2.2753,0,0,0,0,0,0,2.1531,2.1572,2.1869,2.1883,2.1692,2.1853,2.188,2.195,2.2089,2.2107,2.2007,2.2006,2.2218,2.224,2.2262,2.2428,2.2337,2.2348,2.2355,2.2747,2.2751,2.2755,0,0,0,0,0,0,2.1522,2.1557,2.186,2.1728,2.1767,2.1863,2.1942,2.1956,2.2009,2.2113,2.213,2.2043,2.2217,2.2246,2.2382,2.2436,2.2354,2.2365,2.2742,2.2748,2.2753,2.2762,0,0,0,0,0,0,2.1511,2.1554,2.1609,2.1729,2.1774,2.1978,2.1945,2.1963,2.203,2.2029,2.2151,2.2168,2.2216,2.2364,2.2394,2.2451,2.2374,2.2738,2.2745,2.2751,2.2757,2.2767,2.2775,0,0,0,0,0,2.1496,2.1604,2.1611,2.1647,2.1844,2.1981,2.2006,2.206,2.2034,2.2088,2.2154,2.2164,2.2425,2.2378,2.2412,2.2474,2.2735,2.2743,2.2751,2.2753,2.2765,2.2775,0,0,0,0,0,0,2.1489,2.1621,2.1631,2.1781,2.1869,2.1986,2.2056,2.2071,2.2169,2.2165,2.2227,2.2254,2.2386,2.2444,2.2388,2.261,2.2578,2.2593,2.2568,2.258,2.2589,2.2572,2.2384,0,0,0,0,0,2.1504,2.1605,2.1714,2.1836,2.188,2.196,2.2022,2.2055,2.2149,2.2186,2.2262,2.2353,2.2454,2.252,2.2621,2.2765,2.279,2.2824,2.2833,2.284,2.2852,2.2927,2.2942,2.278,2.278,2.278,0,0,2.1538,2.1622,2.1683,2.1836,2.1909,2.2009,2.1992,2.2101,2.2175,2.2203,2.2336,2.2394,2.2498,2.2638,2.2703,2.269,2.2901,2.285,2.2854,2.2863,2.2937,2.2952,2.2966,2.2786,2.2785,2.2784,0,0,2.165,2.1726,2.1833,2.1905,2.2014,2.2066,2.2091,2.2205,2.2244,2.2378,2.2399,2.2488,2.2664,2.2735,2.2795,2.2927,2.2939,2.2958,2.3005,2.3077,2.309,2.3102,2.3145,2.3161,2.297,2.297,2.297,0,2.1679,2.1832,2.1886,2.1993,2.2058,2.2086,2.2193,2.226,2.2396,2.2439,2.2422,2.2639,2.2712,2.2866,2.2897,2.2946,2.2974,2.2945,2.3084,2.3096,2.3108,2.315,2.3166,2.2971,2.2971,2.2971,2.2971,0,2.1859,2.1965,2.2038,2.2167,2.224,2.2347,2.2414,2.2482,2.2506,2.2559,2.2692,2.2779,2.2894,2.2933,2.2961,2.309,2.3078,2.3072,2.304,2.3124,2.3164,2.3181,2.2973,2.2973,2.2972,2.2972,0,0,2.1977,2.213,2.2156,2.2212,2.2332,2.2414,2.2519,2.2631,2.2685,2.2777,2.2864,2.3009,2.3002,2.307,2.3104,2.3168,2.3262,2.3154,2.3157,2.3168,2.3405,2.3407,2.3426,2.327,2.3273,2.3276,2.3395,0,2.2101,2.229,2.2339,2.2499,2.2595,2.262,2.2711,2.2792,2.2843,2.293,2.2985,2.3086,2.3071,2.3111,2.3176,2.3237,2.331,2.3229,2.3349,2.3353,2.3321,2.3448,2.3452,2.3561,2.3412,2.3414,2.3416,0,2.2272,2.2364,2.2534,2.2636,2.2678,2.2759,2.2862,2.2946,2.3037,2.3069,2.3141,2.3168,2.3275,2.3237,2.3383,2.3327,2.3378,2.3415,2.342,2.3433,2.3389,2.3461,2.3597,2.3612,2.3443,2.3441,2.3439,0,2.2336,2.2503,2.2624,2.2672,2.2796,2.2851,2.2905,2.2993,2.3055,2.3145,2.3185,2.3287,2.3342,2.3418,2.347,2.3438,2.361,2.3578,2.3637,2.3635,2.3672,2.3669,2.3816,2.3708,2.3708,2.3708,2.3707,0,2.2468,2.257,2.2654,2.2729,2.2842,2.2895,2.3005,2.3059,2.3136,2.3219,2.3248,2.3325,2.339,2.3475,2.3516,2.3627,2.3653,2.3679,2.3689,2.3676,2.3672,2.371,2.3703,2.3712,2.3711,2.371,2.3709,0,2.256,2.262,2.2754,2.2858,2.2886,2.2964,2.3052,2.3124,2.3173,2.3278,2.3306,2.3383,2.3484,2.3543,2.3671,2.3698,2.3821,2.3829,2.379,2.3794,2.3849,2.3841,2.4024,2.4049,2.3926,2.3927,2.3928,0,2.2639,2.2718,2.2829,2.2886,2.294,2.3033,2.3096,2.315,2.3214,2.332,2.3378,2.348,2.3565,2.3724,2.3791,2.3887,2.3895,2.3952,2.391,2.3893,2.3892,2.3886,2.3892,2.3959,2.396,2.3961,2.3962,0,2.2773,2.2798,2.2888,2.2987,2.306,2.3141,2.3221,2.3266,2.3333,2.3402,2.3505,2.357,2.3699,2.3798,2.3899,2.3952,2.3967,2.3974,2.3992,2.398,2.3953,2.3965,2.3807,2.397,2.3969,2.3969,2.3968,2.3968,2.286,2.2928,2.3016,2.3113,2.3178,2.3251,2.3322,2.3379,2.3466,2.3574,2.36,2.3707,2.3791,2.3928,2.3982,2.4065,2.4055,2.4082,2.4089,2.4094,2.4094,2.394,2.4084,2.4083,2.4083,2.4083,2.4083,0,2.2992,2.3049,2.3138,2.3247,2.3322,2.3329,2.3416,2.3478,2.3572,2.3649,2.3731,2.3846,2.3941,2.4014,2.411,2.4162,2.4171,2.4185,2.4181,2.4192,2.4099,2.4072,2.4176,2.4176,2.4176,2.4176,2.4176,2.4176,2.307,2.3185,2.322,2.3365,2.3421,2.3526,2.3574,2.364,2.3701,2.3828,2.3908,2.3954,2.4027,2.4129,2.4215,2.4233,2.4266,2.4279,2.4298,2.421,2.42,2.419,2.4165,2.4287,2.4287,2.4385,2.4386,2.4386]}]]